Simultaneous Nadir Overpasses (SNOs) Predictions

Prediction of SNOs between AQUA and NPP Satellite Orbit:

Table of predicted SNOs for the next 14.0 days since TLE Epoch: 1/31/2020
Index Date (AQUA) Time (AQUA) Lat,Lon (AQUA) SZA (AQUA ) Date (NPP) Time (NPP) Lat,Lon (NPP) SZA (NPP ) Distance(km) Time Diff (sec)
1 02/02/2020 14:05:09 75.90,-152.50 114.48 02/02/2020 14:04:07 75.91,-152.40 114.51 2.88 62
2 02/02/2020 14:54:21 -76.67, 17.64 66.42 02/02/2020 14:54:36 -76.67, 17.64 66.43 0.14 15
3 02/05/2020 06:21:36 76.02, -36.25 113.59 02/05/2020 06:21:01 76.02, -36.27 113.63 0.81 35
4 02/05/2020 07:10:41 -77.12, 135.16 67.71 02/05/2020 07:11:22 -77.13, 135.24 67.76 2.09 41
5 02/07/2020 22:37:55 76.52, 81.26 112.22 02/07/2020 22:37:46 76.53, 81.32 112.21 1.69 9
6 02/07/2020 23:27:09 -77.19,-108.70 68.59 02/07/2020 23:28:17 -77.18,-108.76 68.63 1.50 68
7 02/10/2020 14:05:16 -75.72, 26.96 67.69 02/10/2020 14:04:16 -75.72, 26.96 67.64 0.16 60
8 02/10/2020 14:54:21 76.68,-162.32 111.20 02/10/2020 14:54:39 76.67,-162.36 111.20 1.42 18
9 02/13/2020 06:21:32 -76.32, 144.70 69.23 02/13/2020 06:20:58 -76.32, 144.78 69.23 2.48 34




NCC Satellite Simultaneous Nadir Overpasses (SNOs) Prediction Service
